{"data":{"norad_id":68861,"intl_designator":"2026-094Y","name":"STARLINK-37479","alt_names":[],"object_type":"PAYLOAD","status":"ACTIVE","operator":null,"country":"US","launch_date":"2026-04-26","launch_site_code":"AFWTR","launch_vehicle":null,"mission":null,"orbit_class":"UNKNOWN","rcs_meters":null,"size_class":null,"mass_kg":null,"dimensions":null,"purposes":["comms"],"wikipedia_slug":null,"has_3d_model":false,"image_url":null,"decayed_at":null,"tle_current":{"epoch":"2026-05-25T04:00:03.998880Z","epoch_age_seconds":50866,"freshness":"FRESH","line1":"1 68861U 26094Y   26145.16671295 -.00023864  00000+0 -43845-3 0  9996","line2":"2 68861  97.2848 159.9468 0000964  61.6564 209.8863 15.49189472  5672","mean_motion":15.49189472,"eccentricity":9.64e-5,"inclination_deg":97.2848,"raan_deg":159.9468,"arg_perigee_deg":61.6564,"mean_anomaly_deg":209.8863,"bstar":-0.00043845,"rev_number":567,"period_min":92.951832298535,"perigee_km":418.44063439619,"apogee_km":419.75114089693,"semimajor_km":6797.2328876466,"source":"CELESTRAK","updated_at":"2026-05-25T13:38:22.065329Z"}}}